Content
SEND FEEDBACK

Daily
Averages
Monthly
Summary
Canada

MONTREAL, QUEBEC


Home > North America > Canada > Quebec
Elevation: 118 feet     Latitude: 45 28N     Longitude: 073 45W

WEATHER
 
SELECT A DAY
Number of Records: 200,695;   Date Range: 1/1/95 - 9/29/14
 
SHARE

PRINT THIS DATA

[ ← Previous Day ]
WEATHER ALMANAC - JANUARY 3, 2013
[ Next Day → ]
[ °C ]   °F
Weather ElementAverageHighLow
Temperature-0.3 °F8.6 °F (9:00 pm)-10 °F (7:00 am)
Dewpoint-8 °F3.2 °F (9:00 pm)-18.4 °F (5:00 am)
Humidity67.4 %85 % (10:00 pm)51 % (1:00 am)
Barometer28.06 in30.30 in (2:00 am) (7:00 pm)
Wind Speed7.1 mph85.2 mph (1:00 am)
Weather ElementAverage
Visibility14 mi
Wind DirectionSSW (195.9 °)

Weather ElementTotal
Precipitation---
Heating Degree Days65.7 (Base 65)
Averaged from 29 records on January 3, 2013
WEATHER CONDITIONS BREAKOUT
WIND DIRECTION BREAKOUT
WEATHER BY HOUR - JANUARY 3, 2013
[ °C ]   °F
Local TimeTemperatureDewpointHumidityBarometerVisibilityWind DirectionWind SpeedGust SpeedPrecipitationEventsConditions
1:00 AM-6.0 °F-15.0 °F51 %30.29 in15.0 miSW (230°)85.2 mphScattered Clouds
1:00 AM-5.8 °F-14.8 °F65 %30.29 in15.0 miNW (320°)2.3 mphOvercast
2:00 AM-5.8 °F-14.8 °F65 %30.30 in15.0 miSW (220°)8.1 mphOvercast
3:00 AM-5.8 °F-14.8 °F65 %30.30 in15.0 miWest (260°)2.3 mphOvercast
4:00 AM-5.8 °F-14.8 °F65 %30.28 in15.0 miWSW (240°)2.3 mphMostly Cloudy
5:00 AM-9.4 °F-18.4 °F65 %30.26 in15.0 miWSW (240°)3.5 mphMostly Cloudy
6:00 AM-7.6 °F-14.8 °F71 %30.26 in15.0 miWSW (240°)3.5 mphOvercast
7:00 AM-9.4 °F-16.6 °F71 %30.25 in15.0 miWSW (240°)3.5 mphMostly Cloudy
7:00 AM-10.0 °F-16.0 °F63 %30.25 in15.0 miWSW (240°)3.5 mphScattered Clouds
8:00 AM-7.6 °F-16.6 °F65 %30.24 in30.0 miWSW (240°)3.5 mphMostly Cloudy
9:00 AM-4.0 °F-13.0 °F65 %30.23 in30.0 miWSW (240°)3.5 mphScattered Clouds
10:00 AM-0.4 °F-13.0 °F55 %30.22 in30.0 miSW (220°)5.8 mphScattered Clouds
11:00 AM-0.4 °F-11.2 °F60 %30.19 in30.0 miSSW (210°)6.9 mphMostly Cloudy
12:00 PM-0.4 °F-11.2 °F60 %30.16 in15.0 miSW (230°)5.8 mphMostly Cloudy
1:00 PM1.4 °F-5.8 °F72 %30.13 in15.0 miSW (220°)5.8 mphOvercast
1:00 PM1.0 °F-7.0 °F57 %30.13 in15.0 miSW (220°)5.8 mphOvercast
1:23 PM1.4 °F0.0 °F15.0 miSSW (210°)2.3 mphSnowLight Snow
2:00 PM3.2 °F-7.6 °F61 %30.10 in10.0 miSSW (200°)2.3 mphSnowLight Snow
3:00 PM3.2 °F-5.8 °F66 %30.08 in8.0 miSE (140°)3.5 mphSnowLight Snow
4:00 PM3.2 °F-5.8 °F66 %30.06 in4.0 miEast (100°)3.5 mphSnowLight Snow
5:00 PM5.0 °F-4.0 °F66 %30.04 in5.0 miEast (100°)3.5 mphSnowLight Snow
6:00 PM5.0 °F-0.4 °F78 %30.01 in10.0 miEast (100°)4.6 mphSnowLight Snow Showers
7:00 PM6.8 °F1.4 °F79 %29.99 in15.0 miEast (90°)4.6 mphSnowLight Snow Showers
7:00 PM6.0 °F0.0 °F68 %29.99 in15.0 miEast (100°)4.6 mphSnowLight Snow Showers
8:00 PM6.8 °F1.4 °F79 %29.96 in10.0 miENE (70°)4.6 mphSnowLight Snow Showers
9:00 PM8.6 °F3.2 °F79 %29.94 in5.0 miNE (40°)4.6 mphSnowLight Snow Showers
10:00 PM6.8 °F3.2 °F85 %29.92 in3.0 miNNE (20°)5.8 mphSnowLight Snow
11:00 PM6.8 °F1.4 °F79 %29.90 in3.0 miNorth (350°)4.6 mphSnowLight Snow
11:50 PM5.0 °F0.0 °F2.0 miNorth (350°)6.9 mphSnowLight Snow
Hourly data recorded from CYUL, located miles away from Montreal, Quebec







STORIES FROM OUR PARTNERS